This is the latest recevied weather packets stored in our database for station/object W2GRK-15. If no packets are shown the sender has not sent any weather packets the latest 10 day(s).
| Time | Temp. | Humidity | Pressure | Rain* | Wind** | Luminosity | Snow |
|---|---|---|---|---|---|---|---|
| 1777997068 | 26.67° C | 44% | 1010.7 hPa | 0 mm | - | 796 W/m² | - |
| 1777996826 | 26.67° C | 45% | 1011 hPa | 0 mm | - | 792 W/m² | - |
| 1777996762 | 26.67° C | 43% | 1010.8 hPa | 0 mm | - | 793 W/m² | - |
| 1777996128 | 26.11° C | 46% | 1011 hPa | 0 mm | - | 785 W/m² | - |
| 1777996003 | 26.11° C | 46% | 1011 hPa | 0 mm | - | 780 W/m² | - |
| 1777995938 | 25.56° C | 44% | 1011.2 hPa | 0 mm | - | 780 W/m² | - |
| 1777995890 | 25.56° C | 45% | 1011.2 hPa | 0 mm | - | 780 W/m² | - |
| 1777995806 | 26.11° C | 46% | 1010.9 hPa | 0 mm | - | 780 W/m² | - |
| 1777995629 | 26.11° C | 47% | 1011.3 hPa | 0 mm | - | 774 W/m² | - |
| 1777995259 | 25.56° C | 48% | 1011.1 hPa | 0 mm | - | 770 W/m² | - |
| 1777994860 | 25° C | 47% | 1011.1 hPa | 0 mm | - | 761 W/m² | - |
| 1777994663 | 25° C | 47% | 1010.9 hPa | 0 mm | - | 755 W/m² | - |
| 1777993036 | 23.89° C | 49% | 1011.4 hPa | 0 mm | - | 687 W/m² | - |
| 1777992440 | 23.89° C | 50% | 1011.7 hPa | 0 mm | - | 672 W/m² | - |
| 1777992198 | 23.89° C | 50% | 1011.7 hPa | 0 mm | - | 666 W/m² | - |
| 1777991666 | 23.33° C | 53% | 1011.7 hPa | 0 mm | - | 642 W/m² | - |
| 1777991509 | 23.33° C | 54% | 1011.7 hPa | 0 mm | - | 633 W/m² | - |
| 1777991296 | 23.33° C | 53% | 1011.8 hPa | 0 mm | - | 640 W/m² | - |
| 1777991248 | 22.78° C | 55% | 1012 hPa | 0 mm | - | 624 W/m² | - |
| 1777989927 | 22.22° C | 56% | 1011.8 hPa | 0 mm | - | 283 W/m² | - |
| 1777989266 | 21.67° C | 56% | 1011.7 hPa | 0 mm | - | 554 W/m² | - |
| 1777989201 | 21.67° C | 56% | 1011.8 hPa | 0 mm | - | 552 W/m² | - |
| 1777988960 | 21.11° C | 58% | 1011.8 hPa | 0 mm | - | 538 W/m² | - |
| 1777988690 | 21.67° C | 56% | 1011.8 hPa | 0 mm | - | 520 W/m² | - |
| 1777988541 | 21.67° C | 57% | 1011.7 hPa | 0 mm | - | 515 W/m² | - |
* Rain latest hour (hover to see other rain measurements)
** Current wind speed in m/s (hover to see current wind gust speed)